Tampa, FL

10:59 AM EST on December 09, 2016 (GMT -0500)
MacDill Air Force Base

Weather History for KMCF - October, 2012

Change the Weather History Date:

Saturday, October 20, 2012

  Actual Average Record
Temperature  
Mean Temperature 75 °F -  
Max Temperature 86 °F 82 °F 91 °F (2013)
Min Temperature 63 °F 64 °F 50 °F (1996)
Cooling Degree Days 10    
Growing Degree Days 25 (Base 50)    
Moisture  
Dew Point 66 °F    
Average Humidity 75    
Maximum Humidity 100    
Minimum Humidity 46    
Precipitation  
Precipitation 0.01 in - - ()
Sea Level Pressure  
Sea Level Pressure 29.91 in    
Wind  
Wind Speed 4 mph (North)    
Max Wind Speed 10 mph    
Max Gust Speed -    
Visibility 10 miles    
Events Rain    
Averages and records for this station are not official NWS values.
T = Trace of Precipitation, MM = Missing Value Source: NWS Daily Summary

Daily Weather History Graph

Daily Weather History Graph

Search for Another Location

Airport or City:

Trip Planner

Search our weather history database for the weather conditions in past years. The results will help you decide how hot, cold, wet, or windy it might be!

Date:

Astronomy

Oct. 20, 2012 Rise Set
Actual Time 7:33 AM EDT 6:55 PM EDT
Civil Twilight 7:09 AM EDT 7:19 PM EDT
Nautical Twilight 6:42 AM EDT 7:46 PM EDT
Astronomical Twilight 6:15 AM EDT 8:13 PM EDT
Moon 12:53 PM EDT (10/20) 11:53 PM EDT (10/20)
Length of Visible Light 12h 09m
Length of Day
11h 21m
Waxing Crescent, 34% of the Moon is Illuminated
Oct 20
Waxing Crescent
Oct 21
First Quarter
Oct 29
Full
Nov 6
Last Quarter
Nov 13
New

Hourly Weather History & Observations

Time (EDT) Temp. Heat Index Dew Point Humidity Pressure Visibility Wind Dir Wind Speed Gust Speed Precip Events Conditions
12:55 AM 76.8 °F - 74.7 °F 93% 29.88 in 10.0 mi Calm Calm - N/A   Clear
1:55 AM 77.2 °F - 75.0 °F 93% 29.88 in 10.0 mi Calm Calm - N/A   Partly Cloudy
2:55 AM 76.3 °F - 74.7 °F 95% 29.87 in 10.0 mi WNW 4.6 mph - N/A   Partly Cloudy
3:28 AM 77.0 °F - 75.2 °F 94% 29.87 in 10.0 mi NW 5.8 mph - N/A   Mostly Cloudy
3:30 AM 77.0 °F - 75.2 °F 94% 29.87 in 10.0 mi NNW 5.8 mph - N/A   Mostly Cloudy
3:35 AM 77.0 °F - 75.2 °F 94% 29.87 in 10.0 mi North 3.5 mph - N/A   Mostly Cloudy
3:55 AM 76.8 °F - 75.0 °F 94% 29.87 in 10.0 mi NNE 6.9 mph - N/A   Overcast
4:22 AM 77.0 °F - 73.4 °F 89% 29.87 in 10.0 mi NNE 6.9 mph - N/A   Mostly Cloudy
4:23 AM 77.0 °F - 73.4 °F 89% 29.88 in 10.0 mi North 6.9 mph - N/A   Light Drizzle
4:33 AM 75.2 °F - 73.4 °F 94% 29.88 in 8.0 mi North 5.8 mph - N/A Rain Rain
4:55 AM 74.1 °F - 72.3 °F 94% 29.88 in 10.0 mi NNE 3.5 mph - 0.01 in   Light Drizzle
4:56 AM 73.4 °F - 71.6 °F 94% 29.88 in 10.0 mi NNE 4.6 mph - N/A   Overcast
5:00 AM 73.4 °F - 73.4 °F 100% 29.88 in 10.0 mi NNE 6.9 mph - N/A   Overcast
5:04 AM 73.4 °F - 73.4 °F 100% 29.88 in 10.0 mi North 5.8 mph - N/A   Mostly Cloudy
5:07 AM 73.4 °F - 73.4 °F 100% 29.88 in 10.0 mi North 8.1 mph - N/A   Mostly Cloudy
5:55 AM 72.7 °F - 70.9 °F 94% 29.90 in 10.0 mi North 8.1 mph - N/A   Mostly Cloudy
6:55 AM 72.1 °F - 67.6 °F 86% 29.91 in 10.0 mi NNE 4.6 mph - N/A   Clear
7:55 AM 70.2 °F - 67.3 °F 91% 29.94 in 10.0 mi ENE 6.9 mph - N/A   Scattered Clouds
8:55 AM 72.0 °F - 60.4 °F 67% 29.96 in 10.0 mi NE 4.6 mph - N/A   Scattered Clouds
9:55 AM 74.8 °F - 58.5 °F 57% 29.97 in 10.0 mi ENE 6.9 mph - N/A   Clear
10:55 AM 80.8 °F 81.4 °F 59.9 °F 49% 29.97 in 10.0 mi Variable 4.6 mph - N/A   Clear
11:55 AM 82.9 °F 83.3 °F 61.0 °F 47% 29.96 in 10.0 mi Variable 4.6 mph - N/A   Clear
12:55 PM 83.5 °F 84.1 °F 61.7 °F 48% 29.95 in 10.0 mi NNW 6.9 mph - N/A   Clear
1:55 PM 85.1 °F 85.7 °F 62.1 °F 46% 29.93 in 10.0 mi Calm Calm - N/A   Clear
2:55 PM 84.9 °F 85.4 °F 62.1 °F 46% 29.91 in 10.0 mi Calm Calm - N/A   Clear
3:55 PM 84.2 °F 84.6 °F 61.2 °F 46% 29.90 in 10.0 mi NW 8.1 mph - N/A   Clear
4:55 PM 81.7 °F 82.2 °F 60.1 °F 48% 29.90 in 10.0 mi NNW 9.2 mph - N/A   Clear
5:55 PM 78.6 °F - 58.5 °F 50% 29.90 in 10.0 mi NNW 10.4 mph - N/A   Clear
6:55 PM 74.7 °F - 55.2 °F 51% 29.92 in 10.0 mi North 5.8 mph - N/A   Clear
7:55 PM 70.7 °F - 53.1 °F 54% 29.94 in 10.0 mi NNE 3.5 mph - N/A   Clear
8:55 PM 68.5 °F - 53.8 °F 59% 29.95 in 10.0 mi North 4.6 mph - N/A   Clear
9:55 PM 68.4 °F - 54.7 °F 62% 29.97 in 10.0 mi Calm Calm - N/A   Clear
10:55 PM 65.3 °F - 55.4 °F 70% 29.99 in 10.0 mi NE 3.5 mph - N/A   Clear
11:55 PM 63.7 °F - 54.7 °F 72% 29.99 in 10.0 mi NE 3.5 mph - N/A   Clear